Weather History for Youngstown, OH

Change the Weather History Date:

Wednesday, September 25, 2013

  Actual Average Record
Temperature  
Mean Temperature 58 °F 58 °F  
Max Temperature 74 °F 69 °F 91 °F (2007)
Min Temperature 42 °F 48 °F 35 °F (1967)
Degree Days  
Heating Degree Days 7 7  
Month to date heating degree days 126 103  
Since 1 July heating degree days 164 141  
Cooling Degree Days 0 1  
Month to date cooling degree days 57 47  
Year to date cooling degree days 609 533  
Growing Degree Days 8 (Base 50)    
Moisture  
Dew Point 47 °F    
Average Humidity 71    
Maximum Humidity 100    
Minimum Humidity 41    
Precipitation  
Precipitation 0.00 in 0.12 in 1.12 in (1986)
Month to date precipitation 2.21 3.16  
Year to date precipitation 29.43 29.38  
Snow  
Snow 0.00 in 0.00 in - ()
Month to date snowfall 0.0 0.0  
Since 1 July snowfall 0.0 0.0  
Since 1 September snowfall 0.0 0.0  
Snow Depth 0.00 in    
Sea Level Pressure  
Sea Level Pressure 29.97 in    
Wind  
Wind Speed 6 mph (ENE)    
Max Wind Speed 10 mph    
Max Gust Speed 14 mph    
Visibility 10 miles    
Events Fog    
T = Trace of Precipitation, MM = Missing Value Source: NWS Daily Summary

Daily Weather History Graph

Daily Weather History Graph

Search for Another Location

Airport:

Trip Planner

Search our weather history database for the weather conditions in past years. The results will help you decide how hot, cold, wet, or windy it might be!

Date:

Astronomy

Sep. 25, 2013 Rise Set
Actual Time 7:13 AM EDT 7:14 PM EDT
Civil Twilight 6:45 AM EDT 7:41 PM EDT
Nautical Twilight 6:13 AM EDT 8:13 PM EDT
Astronomical Twilight 5:41 AM EDT 8:46 PM EDT
Moon 11:16 PM EDT 1:21 PM EDT
Length of Visible Light 12h 55m
Length of Day
12h 00m
Waning Gibbous, 64% of the Moon is Illuminated
Sep 25
Waning Gibbous
Sep 26
Last Quarter
Oct 4
New
Oct 11
First Quarter
Oct 18
Full

Hourly Weather History & Observations

Time (EDT) Temp. Windchill Dew Point Humidity Pressure Visibility Wind Dir Wind Speed Gust Speed Precip Events Conditions
12:51 AM 44.1 °F 42.5 °F 44.1 °F 100% 30.01 in 10.0 mi NE 3.5 mph - N/A Fog Shallow Fog
1:51 AM 43.0 °F 39.5 °F 42.1 °F 97% 30.00 in 9.0 mi ENE 5.8 mph - N/A Fog Shallow Fog
2:51 AM 45.0 °F 42.6 °F 44.1 °F 97% 29.98 in 9.0 mi East 4.6 mph - N/A Fog Shallow Fog
3:51 AM 45.0 °F 42.6 °F 44.1 °F 97% 29.97 in 9.0 mi East 4.6 mph - N/A Fog Shallow Fog
4:51 AM 44.1 °F 42.5 °F 43.0 °F 96% 29.96 in 9.0 mi ENE 3.5 mph - N/A Fog Shallow Fog
5:51 AM 42.1 °F 39.2 °F 41.0 °F 96% 29.97 in 9.0 mi East 4.6 mph - N/A   Scattered Clouds
6:51 AM 43.0 °F 38.8 °F 42.1 °F 97% 29.97 in 10.0 mi East 6.9 mph - N/A   Mostly Cloudy
7:51 AM 46.9 °F - 44.1 °F 90% 29.98 in 10.0 mi East 6.9 mph - N/A   Mostly Cloudy
8:51 AM 48.9 °F - 46.0 °F 90% 29.98 in 10.0 mi East 6.9 mph - N/A   Mostly Cloudy
9:51 AM 50.0 °F - 46.9 °F 89% 29.99 in 10.0 mi East 6.9 mph - N/A   Mostly Cloudy
10:51 AM 57.9 °F - 50.0 °F 75% 29.99 in 10.0 mi East 5.8 mph - N/A   Mostly Cloudy
11:51 AM 62.1 °F - 51.1 °F 67% 29.99 in 10.0 mi East 3.5 mph - N/A   Mostly Cloudy
12:51 PM 66.0 °F - 51.1 °F 59% 29.98 in 10.0 mi ENE 3.5 mph - N/A   Mostly Cloudy
1:51 PM 70.0 °F - 50.0 °F 49% 29.96 in 10.0 mi East 6.9 mph - N/A   Mostly Cloudy
2:51 PM 72.0 °F - 48.0 °F 43% 29.94 in 10.0 mi ENE 6.9 mph - N/A   Mostly Cloudy
3:51 PM 73.0 °F - 48.0 °F 41% 29.93 in 10.0 mi ENE 6.9 mph - N/A   Mostly Cloudy
4:51 PM 73.0 °F - 48.0 °F 41% 29.92 in 10.0 mi NNE 6.9 mph - N/A   Scattered Clouds
5:51 PM 72.0 °F - 51.1 °F 48% 29.92 in 10.0 mi NNE 9.2 mph - N/A   Mostly Cloudy
6:51 PM 64.0 °F - 51.1 °F 63% 29.94 in 10.0 mi North 4.6 mph - N/A   Scattered Clouds
7:51 PM 61.0 °F - 52.0 °F 72% 29.95 in 10.0 mi NNE 9.2 mph - N/A   Scattered Clouds
8:51 PM 57.9 °F - 51.1 °F 78% 29.96 in 10.0 mi NNE 5.8 mph - N/A   Scattered Clouds
9:51 PM 55.9 °F - 51.1 °F 84% 29.97 in 10.0 mi NE 8.1 mph - N/A   Partly Cloudy
10:51 PM 54.0 °F - 51.1 °F 90% 29.97 in 10.0 mi ENE 8.1 mph - N/A   Scattered Clouds
11:51 PM 53.1 °F - 50.0 °F 89% 29.97 in 10.0 mi ENE 6.9 mph - N/A   Mostly Cloudy